Regional Weather Roundup
Issued by NWS

Home | Current Version | Previous Version | Graphics & Text | Print | Product List | Glossary On
Versions: 1 2 3 4 5 6 7 8 9 10 11 12 13 14 15 16 17 18 19 20 21 22 23 24 25 26 27 28 29 30 31 32 33 34 35 36 37 38 39 40 41 42 43 44 45 46 47 48 49 50
795
ASUS43 KFSD 051910
RWRSD

WEATHER ROUNDUP FOR SOUTH DAKOTA
NATIONAL WEATHER SERVICE SIOUX FALLS SD
200 PM CDT THU MAY 05 2016

NOTE: "FAIR" INDICATES FEW OR NO CLOUDS BELOW 12,000 FEET WITH NO
SIGNIFICANT WEATHER AND/OR OBSTRUCTIONS TO VISIBILITY.


SDZ001>005-009-010-012>017-052000-
NORTHWEST AND NORTH CENTRAL SOUTH DAKOTA

CITY           SKY/WX    TMP DP  RH WIND       PRES   REMARKS
BUFFALO          N/A     84  43  23 SE9       29.84F
FAITH            N/A     78  50  37 S7        29.89F
MOBRIDGE       SUNNY     86  51  29 S18G24    29.85F
$$

SDZ012>016-024>037-041>051-057-063-072>074-052000-
SOUTHWEST AND SOUTH CENTRAL SOUTH DAKOTA

CITY           SKY/WX    TMP DP  RH WIND       PRES   REMARKS
RAPID CTY ARPT SUNNY     81  49  32 S14       29.92F
PIERRE         SUNNY     84  48  28 S16G25    29.88F
CUSTER         SUNNY     76  26  15 VRB7      30.04F
ELLSWORTH AFB  SUNNY     82  49  31 SE9       29.91F
PHILIP         SUNNY     85  50  29 S12G21    29.88F
PINE RIDGE     SUNNY     82  48  30 S9        29.94F
WINNER         FAIR      83  47  28 S14G25    29.95F
$$

SDZ004>011-016>023-039-040-052000-
NORTHEAST SOUTH DAKOTA

CITY           SKY/WX    TMP DP  RH WIND       PRES   REMARKS
ABERDEEN       SUNNY     87  37  17 S16G24    29.90F
WATERTOWN      SUNNY     81  41  24 SW15G23   29.95F
BROOKINGS      SUNNY     77  43  29 SW14      29.98F
SISSETON         N/A     83  41  22 W16G25    29.89F
$$

SDZ017-020-022-023-036>040-048>070-052000-
SOUTHEAST SOUTH DAKOTA

CITY           SKY/WX    TMP DP  RH WIND       PRES   REMARKS
SIOUX FALLS    MOSUNNY   73  47  39 SW9       30.01F
HURON          SUNNY     81  47  30 S12       29.94F
CHAMBERLAIN    SUNNY     82  50  33 S14       29.95F
MITCHELL       SUNNY     80  45  28 S12       29.97F
YANKTON        SUNNY     75  43  31 SW7       30.00F
$$

ABBREVIATIONS USED IN REMARKS
   TC - TEMPERATURE IN CELSIUS
  WCI - WIND CHILL INDEX
   HX - HEAT INDEX
  VSB - VISIBILITY





USA.gov is the U.S. government's official web portal to all federal, state and local government web resources and services.